Regional Weather Roundup
Issued by NWS

Home | Current Version | Previous Version | Text Only | Print | Product List | Glossary Off
Versions: 1 2 3 4 5 6 7 8 9 10 11 12 13 14 15 16 17 18 19 20 21 22 23 24 25 26 27 28 29 30 31 32 33 34 35 36 37 38 39 40 41 42 43 44 45 46 47 48 49 50

000
ASUS43 KDMX 230806
RWRIA

WEATHER ROUNDUP FOR IOWA
NATIONAL WEATHER SERVICE DES MOINES IA
200 AM CST THU FEB 23 2017

NOTE: "FAIR" INDICATES FEW OR NO CLOUDS BELOW 12,000 FEET WITH NO
SIGNIFICANT WEATHER AND/OR OBSTRUCTIONS TO VISIBILITY.

* - THESE STATIONS ARE NOT NWS STATIONS...THUS NOT UNDER NWS
QUALITY CONTROL.  THEY ALSO DO NOT REPORT WEATHER SUCH
AS PRECIPITATION OR FOG.

IAZ001>003-012>014-020>022-031>034-043>046-230900-
   NORTHWEST IOWA

CITY           SKY/WX    TMP DP  RH WIND       PRES   REMARKS
CARROLL *      CLOUDY    39  39 100 N13G22    29.80F WCI  32
CHEROKEE *     CLOUDY    35  34  95 N14G23    29.83F WCI  26
DENISON *      CLOUDY    37  36  93 NE12G18   29.79R WCI  30
LE MARS *      CLOUDY    36  34  93 N14       29.87R WCI  27
ORANGE CITY *  CLOUDY    34  34 100 N14       29.84S WCI  24
SHELDON *      CLOUDY    34  34 100 N16       29.83F WCI  23
SIOUX CITY     CLOUDY    39  34  82 N23       29.83R WCI  28
SPENCER        CLOUDY    35  32  88 N18       29.83F WCI  24
$$

IAZ055>058-069>071-079>083-090>094-230900-
   SOUTHWEST IOWA

CITY           SKY/WX    TMP DP  RH WIND       PRES   REMARKS
ATLANTIC *     CLEAR     39  39 100 NE7       29.79R WCI  34
CLARINDA *     PTCLDY    43  41  93 N12       29.78S
COUNCIL BLFS * CLEAR     39  39 100 N9        29.79F WCI  33
CRESTON *      CLEAR     43  39  87 N20       29.76F
HARLAN  *      CLEAR     39  39 100 NE10      29.83R WCI  32
LAMONI         CLEAR     46  42  86 NE13      29.76F
RED OAK *      MOCLDY    41  39  93 N8G15     29.78S
SHENANDOAH *   PTCLDY    45  41  87 NE13      29.76F
$$

IAZ047>049-059>061-072>074-084-230900-
   CENTRAL IOWA

CITY           SKY/WX    TMP DP  RH WIND       PRES   REMARKS
AMES           CLOUDY    40  39  97 N17G24    29.80R WCI  31
ANKENY *       CLOUDY    41  37  87 N9G16     29.82R
BOONE *        CLOUDY    39  39 100 N18G24    29.78F WCI  30
CHARITON *     CLEAR     43  41  93 NE3       29.77S
DES MOINES     PTCLDY    43  38  82 N15       29.79R
GRINNELL*      CLOUDY    40  38  91 N13       29.80R WCI  32
KNOXVILLE *    CLEAR     43  37  81 N15G24    29.75S
MARSHALLTOWN   CLOUDY    40  38  93 NW13      29.79R WCI  32
NEWTON *       CLOUDY    39  37  93 N20       29.80R WCI  30
PELLA *        CLEAR     42  38  86 N17       29.78R
$$

IAZ004>006-015-016-023>025-035-036-230900-
   NORTH CENTRAL IOWA

CITY           SKY/WX    TMP DP  RH WIND       PRES   REMARKS
ALGONA *       CLOUDY    37  36  93 N15G29    29.83S WCI  28
CLARION *      CLOUDY    37  37 100 N17       29.81R WCI  28
ESTHERVILLE    CLOUDY    35  33  92 N18G28    29.83R WCI  24
FORT DODGE *   CLOUDY    37  30  75 N15       29.82F WCI  28
MASON CITY     CLOUDY    37  35  92 N20       29.81R WCI  27
FOREST CITY *  CLOUDY    36  36 100 N15G23    29.82R WCI  26
WEBSTER CITY * CLOUDY    39  36  87 N12G21    29.78S WCI  32
IOWA FALLS *   CLOUDY    39  37  91 NW15G28   29.80S WCI  31
$$

IAZ007>011-017>019-026>030-037>042-050>054-066-230900-
   NORTHEAST IOWA

CITY           SKY/WX    TMP DP  RH WIND       PRES   REMARKS
CEDAR RAPIDS   CLOUDY    42  42 100 NW15      29.75R
CHARLES CITY * CLOUDY    41  41 100 NW16G23   29.79R
CLINTON *      CLEAR     41  39  93 W13       29.73R
DECORAH *      CLOUDY    43  39  87 NW13G20   29.73S
DUBUQUE        PTCLDY    44  41  89 NW15      29.72R
MONTICELLO *   CLOUDY    45  43  93 NW12      29.73S
OELWEIN *      CLOUDY    43  41  93 NW17      29.78R
WATERLOO       CLOUDY    42  37  82 NW16      29.77S
$$

IAZ064-065-067-068-078-230900-
   EAST CENTRAL IOWA

CITY           SKY/WX    TMP DP  RH WIND       PRES   REMARKS
DAVENPORT      CLEAR     44  41  89 NW9       29.74R
IOWA CITY      CLEAR     45  40  82 NW13      29.76R
MUSCATINE *    CLEAR     48  43  81 NW9       29.75R
QUAD CITIES    CLEAR    N/A N/A N/A NW8       29.73R
$$

IAZ062-063-075>077-085>089-095>099-230900-
   SOUTHEAST IOWA

CITY           SKY/WX    TMP DP  RH WIND       PRES   REMARKS
BURLINGTON     CLEAR     51  44  77 N10       29.73R
FAIRFIELD *    CLEAR     43  39  87 NW8       29.75S
KEOKUK *       CLEAR     52  45  76 N10       29.73S
CENTERVILLE *    N/A     45  41  87 N7        29.77
OTTUMWA        CLEAR     42  38  85 N5        29.76S
WASHINGTON *   CLEAR     45  41  87 N15       29.76S
$$

ABBREVIATIONS USED IN REMARKS
   TC - TEMPERATURES IN CELSIUS
  WCI - WIND CHILL INDEX
   HX - HEAT INDEX
  VSB - VISIBILITY
$$





USA.gov is the U.S. government's official web portal to all federal, state and local government web resources and services.